Location: Casalecchio di Reno
(44.4760°N, 11.2757°E)
Time: 03:08:02
(UTC+02:00)

AO-73 - Pass Details

Date: 21 June 2024
Orbit: 530 x 591 km, 97.8° (Epoch: 22 May)

Event Time Altitude Azimuth Distance (km) Brightness Sun altitude
Rises 03:08:33 0° 32° (NNE) 2,686 ? -17.4°
Reaches altitude 10° 03:11:32 10° 57° (ENE) 1,785 ? -17.2°
Maximum altitude 03:13:40 14° 91° (E) 1,522 ? -17.0°
Drops below altitude 10° 03:15:48 10° 125° (SE) 1,778 ? -16.8°
Enters shadow 03:17:11 - 140° (SE) 2,151 ? -16.7°
